• In Netherlands
  • List of Countries
  • For 7 days
  • Water Temperature
  • Satellite Maps
  • Weather Map
  • Weather Widgets
  • user-avatar
    Login

    Hourly Weather Algiers

    Today, 20 February, Monday

    Time Temperature Precipitation Wind Pressure Humidity
    00:00 +7°C° 0 mm 5 mps 753 mmHg 89%
    01:00 +8°C° 0 mm 5 mps 753 mmHg 88%
    02:00 +8°C° 0 mm 5 mps 753 mmHg 86%
    03:00 +9°C° 0 mm 5 mps 753 mmHg 85%
    04:00 +9°C° 0 mm 5 mps 753 mmHg 84%
    05:00 +9°C° 0 mm 5 mps 753 mmHg 84%
    06:00 +9°C° 0 mm 5 mps 753 mmHg 83%
    07:00 +10°C° 0 mm 5 mps 753 mmHg 77%
    08:00 +13°C° 0 mm 5 mps 753 mmHg 72%
    09:00 +15°C° 0 mm 5 mps 753 mmHg 66%
    10:00 +16°C° 0 mm 5 mps 753 mmHg 63%
    11:00 +19°C° 0 mm 6 mps 753 mmHg 59%
    12:00 +20°C° 0 mm 6 mps 753 mmHg 56%
    13:00 +20°C° 0 mm 7 mps 752 mmHg 59%
    14:00 +18°C° 0 mm 7 mps 752 mmHg 61%
    15:00 +18°C° 0 mm 7 mps 752 mmHg 64%
    16:00 +16°C° 0 mm 7 mps 752 mmHg 72%
    17:00 +14°C° 0 mm 7 mps 752 mmHg 80%
    18:00 +11°C° 0 mm 6 mps 752 mmHg 88%
    19:00 +10°C° 0 mm 6 mps 752 mmHg 88%
    20:00 +10°C° 0 mm 6 mps 753 mmHg 88%
    21:00 +9°C° 0 mm 6 mps 753 mmHg 87%
    22:00 +9°C° 0 mm 6 mps 753 mmHg 87%
    23:00 +9°C° 0 mm 6 mps 753 mmHg 87%

    Tomorrow, 21 February, Tuesday

    Time Temperature Precipitation Wind Pressure Humidity
    00:00 +8°C° 0 mm 6 mps 754 mmHg 86%
    01:00 +8°C° 0 mm 6 mps 753 mmHg 86%
    02:00 +8°C° 0 mm 6 mps 753 mmHg 86%
    03:00 +8°C° 0 mm 6 mps 753 mmHg 85%
    04:00 +8°C° 0 mm 6 mps 753 mmHg 84%
    05:00 +7°C° 0 mm 6 mps 753 mmHg 83%
    06:00 +7°C° 0 mm 6 mps 753 mmHg 82%
    07:00 +10°C° 0 mm 6 mps 753 mmHg 75%
    08:00 +13°C° 0 mm 6 mps 753 mmHg 68%
    09:00 +16°C° 0 mm 6 mps 753 mmHg 60%
    10:00 +17°C° 0 mm 6 mps 753 mmHg 57%
    11:00 +19°C° 0 mm 6 mps 753 mmHg 54%
    12:00 +21°C° 0 mm 6 mps 752 mmHg 51%
    13:00 +21°C° 0 mm 6 mps 752 mmHg 53%
    14:00 +21°C° 0 mm 7 mps 751 mmHg 55%
    15:00 +21°C° 0 mm 7 mps 751 mmHg 57%
    16:00 +17°C° 0 mm 7 mps 751 mmHg 66%
    17:00 +15°C° 0 mm 7 mps 751 mmHg 74%
    18:00 +11°C° 0 mm 6 mps 751 mmHg 82%
    19:00 +11°C° 0 mm 6 mps 751 mmHg 81%
    20:00 +11°C° 0 mm 6 mps 752 mmHg 79%
    21:00 +10°C° 0 mm 6 mps 752 mmHg 78%
    22:00 +10°C° 0 mm 6 mps 752 mmHg 73%
    23:00 +11°C° 0 mm 6 mps 752 mmHg 69%

    Day after tomorrow, 22 February, Wednesday

    Time Temperature Precipitation Wind Pressure Humidity
    00:00 +12°C° 0 mm 5 mps 752 mmHg 65%
    01:00 +12°C° 0 mm 5 mps 752 mmHg 64%
    02:00 +12°C° 0 mm 5 mps 752 mmHg 63%
    03:00 +12°C° 0 mm 5 mps 751 mmHg 62%
    04:00 +12°C° 0 mm 5 mps 751 mmHg 64%
    05:00 +12°C° 0 mm 5 mps 751 mmHg 66%
    06:00 +12°C° 0 mm 5 mps 751 mmHg 68%
    07:00 +13°C° 0 mm 4 mps 751 mmHg 66%
    08:00 +15°C° 0 mm 4 mps 751 mmHg 64%
    09:00 +18°C° 0 mm 4 mps 752 mmHg 63%
    10:00 +20°C° 0 mm 4 mps 751 mmHg 58%
    11:00 +21°C° 0 mm 4 mps 751 mmHg 53%
    12:00 +23°C° 0 mm 4 mps 751 mmHg 48%
    13:00 +25°C° 0 mm 4 mps 751 mmHg 47%
    14:00 +25°C° 0 mm 5 mps 750 mmHg 47%
    15:00 +25°C° 0 mm 5 mps 749 mmHg 46%
    16:00 +22°C° 0 mm 5 mps 749 mmHg 53%
    17:00 +20°C° 0 mm 5 mps 749 mmHg 60%
    18:00 +17°C° 0 mm 5 mps 750 mmHg 66%
    19:00 +17°C° 0 mm 5 mps 750 mmHg 63%
    20:00 +17°C° 0 mm 5 mps 750 mmHg 60%
    21:00 +18°C° 0 mm 4 mps 750 mmHg 57%
    22:00 +17°C° 0.1 mm 4 mps 750 mmHg 60%
    23:00 +15°C° 0.1 mm 4 mps 750 mmHg 64%

    23 February, Thursday

    Time Temperature Precipitation Wind Pressure Humidity
    00:00 +15°C° 0.1 mm 4 mps 750 mmHg 67%
    01:00 +15°C° 0 mm 4 mps 750 mmHg 68%
    02:00 +15°C° 0 mm 4 mps 749 mmHg 70%
    03:00 +15°C° 0 mm 4 mps 749 mmHg 71%
    04:00 +15°C° 0.1 mm 4 mps 749 mmHg 74%
    05:00 +15°C° 0.1 mm 4 mps 749 mmHg 76%
    06:00 +14°C° 0.1 mm 4 mps 749 mmHg 78%
    07:00 +17°C° 0.1 mm 4 mps 749 mmHg 75%
    08:00 +18°C° 0.1 mm 4 mps 749 mmHg 72%
    09:00 +19°C° 0.1 mm 4 mps 749 mmHg 69%
    10:00 +20°C° 0.1 mm 3 mps 749 mmHg 66%
    11:00 +21°C° 0.1 mm 3 mps 748 mmHg 64%
    12:00 +21°C° 0.1 mm 2 mps 748 mmHg 62%
    13:00 +22°C° 0.1 mm 3 mps 747 mmHg 58%
    14:00 +24°C° 0.1 mm 3 mps 746 mmHg 55%
    15:00 +23°C° 0.1 mm 4 mps 746 mmHg 52%
    16:00 +22°C° 0.5 mm 4 mps 745 mmHg 58%
    17:00 +20°C° 0.5 mm 4 mps 745 mmHg 65%
    18:00 +17°C° 0.5 mm 5 mps 745 mmHg 71%
    19:00 +16°C° 0.2 mm 5 mps 745 mmHg 72%
    20:00 +15°C° 0.2 mm 5 mps 745 mmHg 73%
    21:00 +14°C° 0.2 mm 5 mps 745 mmHg 73%
    22:00 +14°C° 0.2 mm 5 mps 745 mmHg 77%
    23:00 +13°C° 0.2 mm 4 mps 745 mmHg 80%

    24 February, Friday

    Time Temperature Precipitation Wind Pressure Humidity
    00:00 +13°C° 0.2 mm 3 mps 744 mmHg 83%
    01:00 +13°C° 0.1 mm 4 mps 744 mmHg 86%
    02:00 +12°C° 0.1 mm 4 mps 744 mmHg 89%
    03:00 +12°C° 0.1 mm 4 mps 744 mmHg 92%
    04:00 +12°C° 0 mm 4 mps 744 mmHg 93%
    05:00 +12°C° 0 mm 5 mps 745 mmHg 95%
    06:00 +12°C° 0 mm 5 mps 745 mmHg 96%
    07:00 +13°C° 0 mm 5 mps 746 mmHg 91%
    08:00 +14°C° 0 mm 5 mps 746 mmHg 86%
    09:00 +16°C° 0 mm 5 mps 747 mmHg 80%
    10:00 +16°C° 0.3 mm 5 mps 747 mmHg 77%
    11:00 +18°C° 0.3 mm 4 mps 747 mmHg 74%
    12:00 +18°C° 0.3 mm 4 mps 747 mmHg 70%
    13:00 +18°C° 0.3 mm 4 mps 747 mmHg 74%
    14:00 +18°C° 0.3 mm 3 mps 747 mmHg 78%
    15:00 +17°C° 0.3 mm 3 mps 747 mmHg 81%
    16:00 +16°C° 0.3 mm 3 mps 748 mmHg 86%
    17:00 +14°C° 0.3 mm 3 mps 748 mmHg 91%
    18:00 +13°C° 0.3 mm 4 mps 749 mmHg 96%
    19:00 +13°C° 0.1 mm 3 mps 749 mmHg 96%
    20:00 +13°C° 0.1 mm 3 mps 750 mmHg 97%
    21:00 +13°C° 0.1 mm 3 mps 751 mmHg 97%
    22:00 +13°C° 0 mm 3 mps 751 mmHg 97%
    23:00 +13°C° 0 mm 2 mps 751 mmHg 97%

    25 February, Saturday

    Time Temperature Precipitation Wind Pressure Humidity
    00:00 +13°C° 0 mm 2 mps 751 mmHg 96%
    01:00 +13°C° 0 mm 2 mps 751 mmHg 97%
    02:00 +12°C° 0 mm 2 mps 751 mmHg 97%
    03:00 +12°C° 0 mm 2 mps 751 mmHg 97%
    04:00 +11°C° 0 mm 1 mps 752 mmHg 97%
    05:00 +10°C° 0 mm 1 mps 752 mmHg 97%
    06:00 +10°C° 0 mm 1 mps 752 mmHg 97%
    07:00 +12°C° 0 mm 1 mps 752 mmHg 91%
    08:00 +13°C° 0 mm 1 mps 753 mmHg 84%
    09:00 +15°C° 0 mm 1 mps 753 mmHg 78%
    10:00 +16°C° 0 mm 1 mps 753 mmHg 72%
    11:00 +18°C° 0 mm 1 mps 753 mmHg 67%
    12:00 +19°C° 0 mm 1 mps 753 mmHg 61%
    13:00 +18°C° 0 mm 2 mps 752 mmHg 62%
    14:00 +18°C° 0 mm 2 mps 752 mmHg 63%
    15:00 +18°C° 0 mm 2 mps 752 mmHg 64%
    16:00 +16°C° 0 mm 2 mps 752 mmHg 73%
    17:00 +13°C° 0 mm 1 mps 752 mmHg 82%
    18:00 +11°C° 0 mm 1 mps 753 mmHg 91%
    19:00 +11°C° 0 mm 1 mps 753 mmHg 91%
    20:00 +11°C° 0 mm 1 mps 753 mmHg 91%
    21:00 +9°C° 0 mm 2 mps 753 mmHg 91%
    22:00 +9°C° 0 mm 2 mps 753 mmHg 89%
    23:00 +10°C° 0 mm 2 mps 753 mmHg 87%
    Show more